Graham, TX

4:05 AM CST on February 06, 2016 (GMT -0600)
Graham

Weather History for KRPH - July, 2013

Change the Weather History Date:

Wednesday, July 3, 2013

  Actual Average (KMWL) Record (KMWL)
Temperature  
Mean Temperature 74 °F -  
Max Temperature 92 °F 92 °F 102 °F (2011)
Min Temperature 56 °F 70 °F 59 °F (2013)
Cooling Degree Days 9    
Growing Degree Days 24 (Base 50)    
Moisture  
Dew Point 46 °F    
Average Humidity 38    
Maximum Humidity 75    
Minimum Humidity 18    
Precipitation  
Precipitation 0.00 in - - ()
Sea Level Pressure  
Sea Level Pressure 30.02 in    
Wind  
Wind Speed 2 mph (East)    
Max Wind Speed 8 mph    
Max Gust Speed -    
Visibility 10 miles    
Events      
Averages and records for this station are not official NWS values.
T = Trace of Precipitation, MM = Missing Value Source: NWS Daily Summary

Daily Weather History Graph

Daily Weather History Graph

Search for Another Location

Airport or City:

Trip Planner

Search our weather history database for the weather conditions in past years. The results will help you decide how hot, cold, wet, or windy it might be!

Date:

Astronomy

Jul. 03, 2013 Rise Set
Actual Time 6:29 AM CDT 8:46 PM CDT
Civil Twilight 6:01 AM CDT 9:15 PM CDT
Nautical Twilight 5:26 AM CDT 9:50 PM CDT
Astronomical Twilight 4:48 AM CDT 10:28 PM CDT
Moon 3:02 AM CDT (7/3) 5:03 PM CDT (7/3)
Length of Visible Light 15h 14m
Length of Day
14h 17m
Waning Crescent, 18% of the Moon is Illuminated
Jul 3
Waning Crescent
Jul 8
New
Jul 15
First Quarter
Jul 22
Full
Jul 29
Last Quarter

Hourly Weather History & Observations

Time (CDT) Temp. Dew Point Humidity Pressure Visibility Wind Dir Wind Speed Gust Speed Precip Events Conditions
12:15 AM 67.5 °F 46.2 °F 46% 30.07 in 10.0 mi ENE 3.5 mph - N/A   Clear
12:35 AM 67.1 °F 46.6 °F 48% 30.07 in 10.0 mi Calm Calm - N/A   Clear
12:55 AM 66.7 °F 46.0 °F 47% 30.08 in 10.0 mi Calm Calm - N/A   Clear
1:15 AM 65.7 °F 46.4 °F 50% 30.08 in 10.0 mi Calm Calm - N/A   Clear
1:35 AM 65.5 °F 46.6 °F 50% 30.07 in 10.0 mi Calm Calm - N/A   Clear
1:55 AM 64.9 °F 46.4 °F 51% 30.07 in 10.0 mi Calm Calm - N/A   Clear
2:15 AM 64.9 °F 46.9 °F 52% 30.07 in 10.0 mi Calm Calm - N/A   Clear
2:35 AM 64.4 °F 46.8 °F 53% 30.07 in 10.0 mi Calm Calm - N/A   Clear
2:55 AM 62.8 °F 47.8 °F 58% 30.06 in 10.0 mi Calm Calm - N/A   Clear
3:15 AM 62.1 °F 48.2 °F 60% 30.06 in 10.0 mi Calm Calm - N/A   Clear
3:35 AM 62.8 °F 47.5 °F 57% 30.06 in 10.0 mi Calm Calm - N/A   Clear
3:55 AM 60.1 °F 48.6 °F 66% 30.05 in 10.0 mi Calm Calm - N/A   Clear
4:15 AM 59.5 °F 48.2 °F 66% 30.05 in 10.0 mi Calm Calm - N/A   Clear
4:35 AM 59.9 °F 48.6 °F 66% 30.05 in 10.0 mi Calm Calm - N/A   Clear
4:55 AM 58.6 °F 48.0 °F 68% 30.05 in 10.0 mi Calm Calm - N/A   Clear
5:15 AM 58.8 °F 48.4 °F 68% 30.05 in 10.0 mi Calm Calm - N/A   Clear
5:35 AM 57.2 °F 48.6 °F 73% 30.05 in 10.0 mi Calm Calm - N/A   Clear
5:55 AM 57.7 °F 48.7 °F 72% 30.05 in 10.0 mi Calm Calm - N/A   Clear
6:15 AM 57.2 °F 49.1 °F 74% 30.05 in 10.0 mi Calm Calm - N/A   Clear
6:35 AM 56.8 °F 49.1 °F 75% 30.05 in 10.0 mi Calm Calm - N/A   Clear
6:55 AM 57.2 °F 49.3 °F 75% 30.05 in 10.0 mi Calm Calm - N/A   Clear
7:15 AM 58.6 °F 50.2 °F 73% 30.06 in 10.0 mi Calm Calm - N/A   Clear
7:35 AM 61.5 °F 49.8 °F 65% 30.06 in 10.0 mi Calm Calm - N/A   Clear
7:55 AM 64.0 °F 49.8 °F 60% 30.07 in 10.0 mi Calm Calm - N/A   Clear
8:15 AM 66.9 °F 50.4 °F 55% 30.08 in 10.0 mi Calm Calm - N/A   Clear
8:35 AM 69.8 °F 49.6 °F 49% 30.08 in 10.0 mi Calm Calm - N/A   Clear
8:55 AM 71.6 °F 48.9 °F 45% 30.09 in 10.0 mi Calm Calm - N/A   Clear
9:15 AM 73.4 °F 48.7 °F 42% 30.09 in 10.0 mi Calm Calm - N/A   Clear
9:35 AM 75.2 °F 47.8 °F 38% 30.09 in 10.0 mi SW 3.5 mph - N/A   Clear
9:55 AM 76.8 °F 46.6 °F 34% 30.09 in 10.0 mi SSW 3.5 mph - N/A   Clear
10:15 AM 78.8 °F 46.9 °F 32% 30.08 in 10.0 mi SSE 3.5 mph - N/A   Clear
10:35 AM 80.8 °F 47.1 °F 31% 30.08 in 10.0 mi Calm Calm - N/A   Clear
10:55 AM 82.4 °F 47.1 °F 29% 30.08 in 10.0 mi SSW 4.6 mph - N/A   Clear
11:15 AM 83.5 °F 45.5 °F 26% 30.07 in 10.0 mi WSW 4.6 mph - N/A   Clear
11:35 AM 84.9 °F 45.1 °F 25% 30.07 in 10.0 mi Calm Calm - N/A   Clear
11:55 AM 85.8 °F 45.1 °F 24% 30.06 in 10.0 mi West 3.5 mph - N/A   Clear
12:15 PM 86.7 °F 45.1 °F 23% 30.06 in 10.0 mi SE 3.5 mph - N/A   Clear
12:35 PM 87.8 °F 45.3 °F 23% 30.05 in 10.0 mi North 4.6 mph - N/A   Clear
12:55 PM 87.8 °F 45.0 °F 22% 30.05 in 10.0 mi NE 3.5 mph - N/A   Clear
1:15 PM 87.6 °F 43.9 °F 22% 30.03 in 10.0 mi Calm Calm - N/A   Clear
1:35 PM 89.2 °F 43.5 °F 20% 30.03 in 10.0 mi WNW 3.5 mph - N/A   Clear
1:55 PM 90.0 °F 42.1 °F 19% 30.02 in 10.0 mi Calm Calm - N/A   Scattered Clouds
2:15 PM 91.2 °F 43.9 °F 19% 30.02 in 10.0 mi North 8.1 mph - N/A   Scattered Clouds
2:35 PM 90.9 °F 42.4 °F 19% 30.01 in 10.0 mi ESE 4.6 mph - N/A   Scattered Clouds
2:55 PM 90.0 °F 42.4 °F 19% 30.00 in 10.0 mi Calm Calm - N/A   Scattered Clouds
3:15 PM 90.9 °F 41.9 °F 18% 29.99 in 10.0 mi West 3.5 mph - N/A   Scattered Clouds
3:35 PM 90.7 °F 42.8 °F 19% 29.99 in 10.0 mi NNE 3.5 mph - N/A   Scattered Clouds
3:55 PM 92.1 °F 43.2 °F 18% 29.98 in 10.0 mi North 4.6 mph - N/A   Scattered Clouds
4:15 PM 91.2 °F 42.4 °F 18% 29.98 in 10.0 mi ENE 4.6 mph - N/A   Mostly Cloudy
4:35 PM 88.9 °F 42.4 °F 20% 29.96 in 10.0 mi NNE 3.5 mph - N/A   Scattered Clouds
4:55 PM 91.6 °F 43.3 °F 19% 29.96 in 10.0 mi ENE 6.9 mph - N/A   Clear
5:15 PM 91.8 °F 43.2 °F 18% 29.95 in 10.0 mi NE 5.8 mph - N/A   Scattered Clouds
5:35 PM 91.8 °F 43.2 °F 18% 29.95 in 10.0 mi NNE 5.8 mph - N/A   Scattered Clouds
5:55 PM 89.4 °F 43.2 °F 20% 29.95 in 10.0 mi North 4.6 mph - N/A   Clear
6:15 PM 91.4 °F 42.6 °F 18% 29.94 in 10.0 mi Calm Calm - N/A   Clear
6:35 PM 90.0 °F 43.9 °F 20% 29.93 in 10.0 mi East 5.8 mph - N/A   Mostly Cloudy
6:55 PM 87.6 °F 43.9 °F 22% 29.93 in 10.0 mi ESE 5.8 mph - N/A   Scattered Clouds
7:15 PM 86.9 °F 44.4 °F 23% 29.93 in 10.0 mi ESE 6.9 mph - N/A   Clear
7:35 PM 87.8 °F 44.4 °F 22% 29.93 in 10.0 mi SE 6.9 mph - N/A   Clear
7:55 PM 86.9 °F 44.6 °F 23% 29.93 in 10.0 mi ESE 4.6 mph - N/A   Clear
8:15 PM 85.5 °F 44.6 °F 24% 29.93 in 10.0 mi East 4.6 mph - N/A   Clear
8:35 PM 84.0 °F 45.1 °F 26% 29.93 in 10.0 mi East 5.8 mph - N/A   Clear
8:55 PM 82.6 °F 45.3 °F 27% 29.94 in 10.0 mi East 5.8 mph - N/A   Clear
9:15 PM 81.1 °F 45.5 °F 28% 29.95 in 10.0 mi East 4.6 mph - N/A   Clear
9:35 PM 80.1 °F 45.5 °F 30% 29.95 in 10.0 mi ESE 4.6 mph - N/A   Clear
9:55 PM 79.0 °F 45.5 °F 31% 29.96 in 10.0 mi East 4.6 mph - N/A   Clear
10:15 PM 77.9 °F 45.5 °F 32% 29.96 in 10.0 mi ESE 4.6 mph - N/A   Clear
10:35 PM 77.9 °F 45.1 °F 31% 29.97 in 10.0 mi ESE 5.8 mph - N/A   Clear
10:55 PM 77.9 °F 44.8 °F 31% 29.97 in 10.0 mi ESE 6.9 mph - N/A   Clear
11:15 PM 77.5 °F 44.8 °F 31% 29.97 in 10.0 mi East 5.8 mph - N/A   Clear
11:35 PM 77.0 °F 44.8 °F 32% 29.98 in 10.0 mi ESE 6.9 mph - N/A   Clear
11:55 PM 76.8 °F 44.4 °F 32% 29.98 in 10.0 mi ESE 5.8 mph - N/A   Clear